Regional Weather Roundup
Issued by NWS

Home | Current Version | Previous Version | Graphics & Text | Print | Product List | Glossary On
Versions: 1 2 3 4 5 6 7 8 9 10 11 12 13 14 15 16 17 18 19 20 21 22 23 24 25 26 27 28
000
ASUS45 KSLC 010510
RWRUT

UTAH REGIONAL WEATHER ROUNDUP
NATIONAL WEATHER SERVICE SALT LAKE CITY UT
1100 PM MDT SAT APR 30 2016

UTZ001>011-023>025-010600-

NORTHERN UTAH

CITY           SKY/WX    TMP DP  RH WIND       PRES   REMARKS
BRIGHAM CITY   CLOUDY    52  26  37 E15G38    30.06R
HILL AFB       CLOUDY    48  27  43 NE13G36   30.03R
LOGAN          CLOUDY    50  28  42 SE23G40   30.10R
OGDEN          CLOUDY    50  28  42 NW9G29    30.03S
PROVO AIRPORT  MOCLDY    52  30  43 SE14G22   29.99R
SALT LAKE CITY CLOUDY    53  27  36 E10G21    30.00R
VERNAL         CLOUDY    43  25  49 N10       30.10R
WENDOVER       MOCLDY    52  36  54 N18G24    30.04S
HEBER CITY     MOCLDY    41  34  75 CALM      30.02R

$$

UTZ012>022-026-027-010600-

SOUTHERN/CENTRAL UTAH

CITY           SKY/WX    TMP DP  RH WIND       PRES   REMARKS
BLANDING       CLEAR     40  31  70 NE5       29.98R
BRYCE CANYON   PTCLDY    34  29  82 N6        29.97S WCI  29
CEDAR CITY     MOCLDY    41  38  89 NE6       29.92S
DELTA          MOCLDY    46  32  57 N9        29.95S
HANKSVILLE     MOCLDY    50  32  50 NE16G23   29.97R
MILFORD        MOCLDY    47  39  74 NW10      29.93F
MOAB/CYNLANDS  PTCLDY    47  31  53 N8        29.93S
PRICE          CLOUDY    42  27  55 NE16      30.04R
ST GEORGE      MOCLDY    57  39  51 E7        29.87R
KANAB          MOCLDY    46  43  87 N7        29.94

$$

REGIONAL REPORTS     COLORADO/ARIZONA

CITY           SKY/WX    TMP DP  RH WIND       PRES   REMARKS
CRAIG, CO      CLOUDY    37  22  54 E8        30.10R WCI  31
GRAND JUNCTION CLOUDY    47  30  51 NW7       29.94S
RIFLE          CLOUDY    43  34  70 NE6       30.01R
MONTROSE       CLOUDY    41  30  65 S7        29.97S
CORTEZ         CLOUDY    36  32  85 E3        29.90S
PAGE, AZ       MOCLDY    50  41  71 CALM      29.88R
GRAND CANYON   CLOUDY    41  36  82 NE10      29.91R
KINGMAN        CLOUDY    51  42  71 NE10      29.81S
FLAGSTAFF      MIX PCPN  35  34  96 NE10      29.89S WCI  27

$$

REGIONAL REPORTS    NEVADA/IDAHO/WYOMING

CITY           SKY/WX    TMP DP  RH WIND       PRES   REMARKS
LAS VEGAS, NV  LGT RAIN  58  50  75 NW9       29.81R
ELY            CLOUDY    39  36  89 NE10      30.04R WCI  32
ELKO           CLEAR     46  33  60 NE7       30.06R
POCATELLO, ID  CLOUDY    49  40  71 SE7       30.11R
BURLEY         CLOUDY    48  44  86 CALM      30.09S
EVANSTON, WY   CLOUDY    35  27  72 E20G26    30.14R WCI  24
ROCK SPRINGS   CLOUDY    34  26  72 E22       30.19R WCI  22
KEMMERER         N/A     32  28  86 E20G25    30.18S WCI  20

$$




USA.gov is the U.S. government's official web portal to all federal, state and local government web resources and services.